DW7780 Weather Reports


time (UTC)temp
F
wind
direction
speed
knots
gust
knots
rain 1hr
in
rain 24hr
in
rain mn
in
humidity
%
barometer
mb
20260508144530 57 236 0.9 8.7 0.00 0.01 0.00 47 1013.6
20260508143027 56 0 0.9 5.2 0.00 0.01 0.00 51 1013.5
20260508141528 56 0 0.9 7.8 0.00 0.01 0.00 48 1013.6
20260508140028 55 0 0.9 6.1 0.00 0.01 0.00 53 1013.7
20260508134528 54 0 0.0 2.6 0.00 0.01 0.00 50 1013.7
20260508133029 54 0 0.0 2.6 0.00 0.01 0.00 53 1013.6
20260508131528 54 0 0.0 3.5 0.00 0.01 0.00 51 1013.8
20260508130030 53 0 0.0 2.6 0.00 0.01 0.00 55 1013.8
20260508124526 52 0 0.0 2.6 0.00 0.01 0.00 63 1014.0
20260508123027 51 0 0.0 3.5 0.00 0.01 0.00 70 1013.9
20260508121530 49 0 0.0 0.0 0.00 0.01 0.00 76 1013.7
20260508120027 47 0 0.0 0.9 0.00 0.01 0.00 80 1013.5
20260508114528 45 0 0.0 0.0 0.00 0.01 0.00 85 1013.5
20260508113028 43 0 0.0 0.0 0.00 0.01 0.00 89 1013.7
20260508111526 41 0 0.0 0.0 0.00 0.01 0.00 89 1013.6
20260508110027 40 0 0.0 0.0 0.00 0.01 0.00 88 1013.5
20260508104538 40 0 0.0 0.0 0.00 0.01 0.00 88 1013.5
20260508103034 40 0 0.0 0.0 0.00 0.01 0.00 86 1013.4
20260508101527 40 0 0.0 0.0 0.00 0.01 0.00 85 1013.2
20260508100029 41 0 0.0 0.0 0.00 0.01 0.00 84 1012.9
20260508094527 42 0 0.0 0.0 0.00 0.01 0.00 83 1012.9
20260508093028 42 0 0.0 0.0 0.00 0.01 0.00 82 1012.8
20260508091527 43 0 0.0 0.0 0.00 0.01 0.00 80 1012.7
20260508090031 44 0 0.0 0.0 0.00 0.01 0.00 79 1012.6
20260508084528 45 0 0.0 0.0 0.00 0.01 0.00 78 1012.4
20260508083025 46 0 0.0 0.0 0.00 0.01 0.00 77 1012.2
20260508081528 47 0 0.0 4.3 0.00 0.01 0.00 74 1011.9
20260508080028 47 0 0.0 1.7 0.00 0.01 0.00 74 1011.8
20260508074528 48 0 0.0 1.7 0.00 0.07 0.00 73 1011.4
20260508073028 49 0 0.0 3.5 0.00 0.07 0.00 73 1011.4
20260508071528 49 286 0.0 6.1 0.00 0.07 0.00 72 1011.2
20260508070041 49 0 0.0 3.5 0.00 0.07 0.00 72 1010.9
20260508064534 49 0 0.0 7.8 0.00 0.17 0.00 72 1010.8
20260508063028 49 0 0.0 7.8 0.00 0.17 0.00 74 1010.7
20260508061528 48 0 0.0 1.7 0.00 0.17 0.00 77 1010.0
20260508060032 48 0 0.0 5.2 0.00 0.17 0.00 78 1009.4
20260508054530 48 0 0.0 0.9 0.00 0.34 0.00 86 1009.8
20260508053031 48 0 0.0 3.5 0.00 0.34 0.00 87 1009.9
20260508051528 48 0 0.0 0.0 0.00 0.34 0.00 86 1009.4
20260508050030 48 0 0.0 0.0 0.00 0.34 0.00 86 1009.3
20260508044528 48 0 0.0 0.0 0.00 0.36 0.00 85 1009.4
20260508043048 48 0 0.0 0.9 0.00 0.36 0.00 84 1009.7
20260508041528 48 0 0.0 0.0 0.00 0.36 0.00 83 1009.3
20260508040030 47 0 0.0 0.0 0.00 0.36 0.00 83 1009.2
20260508034529 47 0 0.0 0.0 0.00 0.36 0.36 82 1009.0
20260508033032 47 0 0.0 0.0 0.00 0.36 0.36 83 1008.9
20260508031528 46 0 0.0 0.0 0.00 0.36 0.36 83 1009.0
20260508030042 46 0 0.0 0.0 0.00 0.36 0.36 82 1009.0
20260508024533 46 0 0.0 0.0 0.00 0.37 0.36 82 1009.0
20260508023026 47 0 0.0 0.0 0.00 0.37 0.36 80 1008.9
20260508021538 47 0 0.0 0.0 0.00 0.37 0.36 80 1008.8
20260508020027 48 0 0.0 0.0 0.00 0.37 0.36 76 1009.0
20260508014529 48 0 0.0 0.0 0.00 0.38 0.36 77 1008.6
20260508013029 49 0 0.0 0.0 0.00 0.38 0.36 72 1008.6
20260508011532 50 0 0.0 0.0 0.00 0.38 0.36 74 1008.5
20260508010031 51 0 0.0 0.0 0.00 0.38 0.36 72 1008.6
20260508004529 53 0 0.0 0.0 0.00 0.38 0.36 66 1008.5
20260508003030 55 0 0.0 0.0 0.00 0.38 0.36 63 1008.2
20260508001528 56 0 0.0 0.0 0.00 0.38 0.36 60 1008.0
20260508000029 58 0 0.0 0.0 0.00 0.38 0.36 54 1007.8
20260507234536 60 0 0.0 0.0 0.00 0.38 0.36 54 1007.7
20260507233028 61 0 0.0 3.5 0.00 0.38 0.36 43 1007.6
20260507231530 62 303 0.9 5.2 0.00 0.38 0.36 40 1007.5
20260507230028 63 0 0.0 5.2 0.00 0.38 0.36 39 1007.4
20260507224529 63 0 0.0 1.7 0.01 0.38 0.36 39 1007.3
20260507223028 63 0 0.0 6.1 0.01 0.38 0.36 39 1007.4
20260507221528 63 0 0.0 5.2 0.01 0.38 0.36 38 1007.4
20260507220030 64 0 0.0 7.8 0.01 0.38 0.36 35 1007.4
20260507214530 64 293 0.9 7.0 0.00 0.37 0.35 35 1007.4
20260507213029 63 302 0.9 5.2 0.00 0.37 0.35 38 1007.5
20260507211530 63 297 0.0 5.2 0.00 0.37 0.35 39 1007.4
20260507210029 62 0 0.0 6.1 0.00 0.37 0.35 40 1007.3
20260507204530 63 78 0.0 5.2 0.00 0.37 0.35 37 1007.3
20260507203028 63 0 0.0 3.5 0.00 0.37 0.35 41 1007.4
20260507201536 63 336 0.9 6.1 0.00 0.37 0.35 36 1007.5
20260507200027 63 304 0.9 7.8 0.00 0.37 0.35 37 1007.6
20260507194528 63 0 0.9 7.8 0.00 0.37 0.35 36 1007.7
20260507193032 63 94 0.9 5.2 0.00 0.37 0.35 36 1007.9
20260507191534 63 0 0.0 3.5 0.00 0.37 0.35 38 1008.0
20260507190031 62 0 0.9 6.1 0.00 0.37 0.35 45 1008.3
20260507184528 62 0 0.0 7.8 0.00 0.37 0.35 38 1008.4
20260507183038 62 0 0.0 6.1 0.00 0.37 0.35 39 1008.7
20260507181530 62 0 0.0 7.8 0.00 0.37 0.35 44 1008.8
20260507180027 62 0 0.0 4.3 0.00 0.37 0.35 42 1008.8
20260507174532 62 0 0.0 6.1 0.00 0.37 0.35 46 1009.1
20260507173034 61 0 0.0 5.2 0.00 0.37 0.35 43 1009.5
20260507171531 61 264 0.9 10.4 0.00 0.37 0.35 44 1009.7
20260507170030 60 0 0.0 8.7 0.00 0.37 0.35 45 1009.9
20260507164531 59 0 0.0 0.0 0.00 0.41 0.35 46 1010.2
20260507163030 59 0 0.0 0.0 0.00 0.41 0.35 48 1010.5
20260507161529 59 0 0.0 7.0 0.00 0.41 0.35 48 1010.5
20260507160032 58 0 0.9 7.8 0.00 0.41 0.35 48 1010.9
20260507154528 57 291 0.0 8.7 0.00 0.49 0.35 53 1010.8
20260507153031 57 0 0.9 12.2 0.00 0.49 0.35 52 1011.0
20260507151531 57 106 0.9 7.0 0.00 0.49 0.35 59 1011.1
20260507150030 57 268 0.0 8.7 0.00 0.49 0.35 55 1011.4